CAPE
1196 1189 1247 1347 1157 796 312 55 0 0 0 0 0 0 0 0 0 0 0 0 0 0 0 0 0 0 0 0 0 0 0 0
916 994 1031 1145 1281 932 447 3 0 0 0 0 0 0 0 0 0 0 0 0 0 0 0 0 0 0 0 0 0 0 0 0
289 683 873 1062 1261 966 8 0 0 0 0 0 0 0 0 0 0 0 0 0 0 0 0 0 0 0 0 0 0 0 0 0
0 115 626 1083 1247 993 38 0 0 0 0 0 0 0 0 1 0 0 0 0 0 0 0 0 0 0 0 0 0 0 0 0
0 0 184 930 1259 801 0 0 0 0 0 0 0 0 0 0 0 0 0 0 0 0 0 0 0 0 0 0 0 0 0 0
0 0 0 0 0 0 0 2 1 2 1 0 0 0 0 0 0 0 0 0 0 0 0 0 0 0 0 0 0 0 0 0
0 0 0 1 1 1 2 3 5 2 0 0 0 0 0 0 0 0 0 0 0 0 0 0 0 0 0 0 0 0 0 0
0 1 1 1 1 1 1 2 5 4 2 1 0 0 0 0 0 0 0 0 0 0 0 0 0 0 0 0 0 0 0 0
0 0 1 2 2 1 0 0 1 1 0 1 0 0 0 0 0 0 0 0 0 0 0 0 0 0 0 0 0 0 0 0
0 0 0 0 0 0 0 0 0 1 0 0 0 0 0 0 0 0 0 0 0 0 0 0 0 0 0 0 0 0 0 0
0 0 0 0 0 0 0 0 0 0 0 0 0 0 0 0 0 0 0 0 0 0 0 0 0 0 0 0 0 0 0 0
0 0 0 0 0 0 0 0 0 0 0 0 0 0 0 0 0 0 0 0 0 0 0 0 0 0 0 0 0 0 0 0
0 0 0 0 0 0 0 0 0 0 0 0 0 0 0 0 0 0 0 0 0 0 0 0 0 0 0 0 0 0 0 0
0 0 0 0 0 0 0 0 0 0 0 0 0 0 0 0 0 0 0 0 0 0 0 0 0 0 0 0 0 0 0 0
0 0 0 0 0 0 0 0 0 0 0 0 0 0 0 0 0 0 0 0 0 0 0 0 0 0 0 0 0 0 0 0
0 0 0 0 0 0 0 0 0 0 0 0 0 0 0 0 0 0 0 0 0 0 1 1 1 1 3 0 1 0 0 0
0 0 0 0 0 0 0 0 0 0 0 0 0 0 0 0 0 0 0 0 0 0 0 0 0 1 6 3 1 0 0 0
0 0 0 0 0 0 0 0 0 0 0 0 0 0 0 0 0 0 0 0 0 0 0 0 0 0 6 9 3 1 0 0
0 0 0 0 0 0 0 0 0 0 0 0 0 0 0 0 0 0 0 0 0 0 0 0 0 1 7 6 3 0 0 0
CIN
-253 -255 -249 -197 -215 -257 -343 -307 -0 -0 -0 -0 -0 -0 -0 -0 -0 -0 -0 -0 -0 -0 -0 -0 -0 -0 -0 -0 -0 -0 -0 -0
-221 -213 -234 -186 -163 -209 -324 -448 -0 -0 -0 -0 -0 -0 -0 -0 -0 -0 -0 -0 -0 -0 -0 -0 -0 -0 -0 -0 -0 -0 -0 -0
-331 -287 -281 -258 -181 -194 -118 -0 -0 -0 -0 -0 -0 -0 -0 -0 -0 -0 -0 -0 -0 -0 -0 -0 -0 -0 -0 -0 -0 -0 -0 -0
-0 -367 -384 -281 -226 -211 -465 -0 -0 -0 -0 -0 -0 -0 -0 -0 -0 -0 -0 -0 -0 -0 -0 -0 -0 -0 -0 -0 -0 -0 -0 -0
-0 -0 -436 -300 -191 -208 -0 -0 -0 -0 -0 -0 -0 -0 -0 -0 -0 -0 -0 -0 -0 -0 -0 -0 -0 -0 -0 -0 -0 -0 -0 -0
-0 -0 -0 -0 -0 -0 -0 -0 -0 -0 -0 -0 -0 -0 -0 -0 -0 -0 -0 -0 -0 -0 -0 -0 -0 -0 -0 -0 -0 -0 -0 -0
-0 -0 -0 -0 -0 -0 -0 -0 -0 -0 -0 -0 -0 -0 -0 -0 -0 -0 -0 -0 -0 -0 -0 -0 -0 -0 -0 -0 -0 -0 -0 -0
-0 -0 -0 -0 -0 -0 -0 -0 -0 -0 -0 -0 -0 -0 -0 -0 -0 -0 -0 -0 -0 -0 -0 -0 -0 -0 -0 -0 -0 -0 -0 -0
-0 -0 -0 -0 -0 -0 -0 -0 -0 -0 -0 -0 -0 -0 -0 -0 -0 -0 -0 -0 -0 -0 -0 -0 -0 -0 -0 -0 -0 -0 -0 -0
-0 -0 -0 -0 -0 -0 -0 -0 -0 -0 -0 -0 -0 -0 -0 -0 -0 -0 -0 -0 -0 -0 -0 -0 -0 -0 -0 -0 -0 -0 -0 -0
-0 -0 -0 -0 -0 -0 -0 -0 -0 -0 -0 -0 -0 -0 -0 -0 -0 -0 -0 -0 -0 -0 -0 -0 -0 -0 -0 -0 -0 -0 -0 -0
-0 -0 -0 -0 -0 -0 -0 -0 -0 -0 -0 -0 -0 -0 -0 -0 -0 -0 -0 -0 -0 -0 -0 -0 -0 -0 -0 -0 -0 -0 -0 -0
-0 -0 -0 -0 -0 -0 -0 -0 -0 -0 -0 -0 -0 -0 -0 -0 -0 -0 -0 -0 -0 -0 -0 -0 -0 -0 -0 -0 -0 -0 -0 -0
-0 -0 -0 -0 -0 -0 -0 -0 -0 -0 -0 -0 -0 -0 -0 -0 -0 -0 -0 -0 -0 -0 -0 -0 -0 -0 -0 -0 -0 -0 -0 -0
-0 -0 -0 -0 -0 -0 -0 -0 -0 -0 -0 -0 -0 -0 -0 -0 -0 -0 -0 -0 -0 -0 -0 -0 -0 -0 -0 -0 -0 -0 -0 -0
-0 -0 -0 -0 -0 -0 -0 -0 -0 -0 -0 -0 -0 -0 -0 -0 -0 -0 -0 -0 -0 -0 -0 -0 -0 -0 -0 -0 -0 -0 -0 -0
-0 -0 -0 -0 -0 -0 -0 -0 -0 -0 -0 -0 -0 -0 -0 -0 -0 -0 -0 -0 -0 -0 -0 -0 -0 -0 -0 -0 -0 -0 -0 -0
-0 -0 -0 -0 -0 -0 -0 -0 -0 -0 -0 -0 -0 -0 -0 -0 -0 -0 -0 -0 -0 -0 -0 -0 -0 -0 -0 -0 -0 -0 -0 -0
-0 -0 -0 -0 -0 -0 -0 -0 -0 -0 -0 -0 -0 -0 -0 -0 -0 -0 -0 -0 -0 -0 -0 -0 -0 -0 -0 -0 -0 -0 -0 -0
Wind_Speed
18 17 15 16 16 16 16 13 16 14 10 7 5 4 3 3 4 4 6 5 6 6 5 5 5 5 4 3 4 4 3 4
8 9 12 14 16 17 18 17 16 13 10 9 6 5 3 3 2 5 5 5 5 5 4 5 4 5 5 6 4 5 3 2
8 11 14 17 17 15 15 16 16 12 9 4 5 6 3 4 3 4 5 6 6 5 5 4 4 4 4 3 3 3 3 3
8 9 17 16 20 19 15 15 16 12 9 9 8 7 5 3 2 2 3 5 5 6 6 5 4 3 3 2 3 4 4 3
8 10 13 16 12 11 14 14 15 11 12 9 14 8 7 3 3 2 4 4 5 6 7 5 5 3 4 3 3 3 3 3
8 2 7 10 8 8 8 11 11 12 9 11 8 9 6 6 6 7 5 4 5 5 5 6 5 3 3 4 4 4 3 4
13 14 16 14 14 13 11 11 10 10 9 8 9 11 9 8 8 7 3 3 3 4 4 5 5 5 4 3 3 5 4 4
10 13 14 14 15 15 13 13 12 11 9 6 6 8 7 9 9 7 8 4 2 4 3 3 4 5 5 4 5 5 4 4
10 13 12 13 14 14 14 14 13 8 7 5 0 4 5 4 5 5 7 7 6 5 3 3 5 5 4 5 4 4 5 4
5 11 16 15 15 16 16 13 11 11 11 9 7 7 6 6 8 9 8 8 7 7 7 5 5 6 4 5 4 5 5 4
3 5 7 6 12 11 11 14 15 13 11 8 8 7 6 6 6 5 7 7 8 7 8 5 5 6 5 5 5 4 6 3
6 5 5 5 4 5 5 5 8 8 8 7 8 6 7 7 6 7 9 8 8 7 7 6 5 6 5 5 5 5 7 6
7 6 6 5 6 6 6 5 7 8 8 9 9 8 9 9 6 7 10 10 8 8 8 8 7 5 4 5 5 5 6 6
9 6 6 6 6 6 7 7 7 7 8 8 8 7 8 9 8 9 10 11 9 9 9 8 8 6 6 5 6 7 5 5
6 7 7 7 7 6 5 5 6 7 8 8 9 9 8 8 8 8 9 8 9 9 8 6 6 5 7 8 7 6 6 4
8 7 8 7 7 7 6 5 6 8 9 8 8 7 8 9 9 9 9 10 9 9 9 8 8 6 4 7 7 7 6 6
9 8 7 9 10 10 8 8 7 7 7 8 8 8 9 9 9 9 9 9 9 9 8 9 8 5 13 13 9 7 6 6
10 10 10 10 13 13 13 11 9 9 8 8 9 9 9 8 9 10 9 10 9 9 8 8 7 6 13 13 13 7 7 5
9 8 8 9 7 9 8 10 10 9 9 10 9 9 10 10 10 8 8 8 8 8 8 8 8 6 15 16 15 7 6 5
Wind_Direction
207 198 186 184 187 182 171 165 157 158 154 135 114 117 114 128 138 144 142 144 144 130 118 126 129 123 119 92 96 62 90 92
210 185 180 190 193 183 178 164 163 159 160 151 142 151 141 98 130 129 127 116 111 114 114 126 135 133 142 131 105 109 84 114
229 192 189 194 192 189 180 176 158 167 166 146 124 125 88 69 37 60 73 100 109 108 110 105 102 106 107 110 114 115 78 8
271 219 199 194 194 189 178 174 170 163 135 120 110 91 85 100 61 65 50 109 114 117 104 107 92 82 117 115 130 141 139 50
262 247 218 208 198 180 167 163 156 149 148 139 153 148 149 146 122 114 105 99 107 117 122 126 122 127 124 130 133 136 121 138
4 341 69 58 77 111 124 133 131 136 133 142 138 119 101 117 126 122 114 109 119 118 127 127 114 109 105 118 131 133 130 141
66 72 73 68 64 71 79 83 90 95 100 106 112 114 134 135 146 132 135 107 100 99 108 117 112 104 97 93 82 79 84 86
87 87 90 94 97 97 96 92 82 78 63 78 123 139 155 156 154 155 141 132 143 116 123 133 121 124 129 118 95 79 74 87
121 118 113 111 109 109 112 114 123 124 129 148 209 143 168 129 184 181 145 156 146 138 115 107 110 114 117 109 101 93 85 89
118 129 131 133 148 150 144 141 146 166 172 169 160 166 182 192 157 199 160 132 140 141 135 142 124 112 110 103 101 97 101 94
115 138 150 133 148 152 157 161 160 172 167 171 182 170 193 136 165 189 124 128 117 134 125 133 130 117 120 115 101 97 105 93
193 180 148 125 102 125 167 169 133 130 134 143 155 144 131 135 165 142 127 124 124 136 122 123 116 110 111 104 106 112 99 89
212 205 175 152 160 162 169 153 148 156 152 143 147 164 153 143 168 146 135 131 134 136 123 118 122 118 113 118 116 109 105 101
206 190 194 185 189 188 183 175 161 145 144 140 124 143 144 138 165 144 125 126 135 131 121 129 132 133 125 114 106 102 111 111
193 167 192 184 191 201 177 166 148 145 138 139 147 155 148 150 144 120 116 121 123 121 116 108 92 99 111 114 116 114 101 113
213 208 203 184 178 174 159 154 155 150 147 146 146 136 129 126 119 119 123 129 131 127 123 120 121 115 114 123 129 127 140 117
214 209 211 190 190 183 167 163 162 155 148 144 138 134 136 145 148 147 136 130 132 133 140 147 145 144 151 148 131 132 136 124
205 195 197 201 197 176 182 170 148 158 153 145 148 150 152 149 138 136 144 145 147 150 147 142 137 138 158 149 134 132 136 124
217 206 193 207 188 174 141 145 156 153 159 153 156 152 155 159 151 149 145 148 154 152 147 144 143 150 154 153 140 122 115 110